Regional Weather Roundup
Issued by NWS

Home | Current Version | Previous Version | Text Only | Print | Product List | Glossary On
Versions: 1 2 3 4 5 6 7 8 9 10 11 12 13 14 15 16 17 18 19 20 21 22 23 24 25 26 27 28 29 30 31 32 33 34 35 36 37 38 39 40 41 42 43 44 45 46 47 48 49 50
000
ASUS44 KFWD 251303
RWRTX
NORTH TEXAS HOURLY WEATHER ROUNDUP
NATIONAL WEATHER SERVICE FORT WORTH TX
700 AM CST THU DEC 25 2014

NOTE: "FAIR" INDICATES FEW OR NO CLOUDS BELOW 12,000 FEET WITH NO
SIGNIFICANT WEATHER AND/OR OBSTRUCTIONS TO VISIBILITY.

TXZ118-119-251400-
DALLAS/FORT WORTH METROPLEX

CITY           SKY/WX    TMP DP  RH WIND       PRES   REMARKS
DFW AIRPORT    MOCLDY    39  28  64 S14       29.99R WCI  31
DALLAS LOVE    MOCLDY    40  27  59 S10       30.01R WCI  33
FTW MEACHAM    PTCLDY    39  26  59 S9        29.97R WCI  33
DAL-EXECUTIVE  CLEAR     41  27  57 S9G18     29.99R WCI  35
FTW-ALLIANCE   PTCLDY    36  26  67 S5        29.97R WCI  32
FTW-SPINKS     CLEAR     39  27  60 S12       30.00S WCI  32
ARLINGTON      CLEAR     38  27  64 S10       30.00R WCI  31
ADDISON        PTCLDY    41  25  52 S12       30.00R WCI  34
MESQUITE       CLEAR    N/A N/A N/A SE8       30.03
LANCASTER      CLEAR     34  28  77 S8        30.04R WCI  27
$$

TXZ091>094-102>105-117-120-121-131>134-251400-
NORTH CENTRAL TEXAS

CITY           SKY/WX    TMP DP  RH WIND       PRES   REMARKS
SHRMAN/DENISON PTCLDY    38  30  72 S13       29.97R WCI  30
GAINESVILLE    PTCLDY    33  27  80 S6        29.98R WCI  27
BRIDGEPORT     PTCLDY    42  28  56 S13       29.97R WCI  35
DECATUR        PTCLDY    37  26  63 S13       29.95R WCI  29
DENTON         PTCLDY    36  28  73 S12       29.97R WCI  28
MCKINNEY       CLEAR     36  29  75 S10       30.01R WCI  28
GREENVILLE     CLEAR     34  32  93 S7        30.02S WCI  28
ROCKWALL       CLEAR     35  30  82 S10       30.01R WCI  27
TERRELL        CLEAR     37  30  75 S6        30.04R WCI  32
WAXAHACHIE     CLEAR     35  30  83 SE6       30.03R WCI  29
CLEBURNE       CLEAR     34  28  80 S9        30.00S WCI  26
GRANBURY       FAIR      35  29  79 CALM      30.00R
$$

TXZ083>090-098>101-113>116-127>130-139>142-154-155-251400-
WESTERN NORTH TEXAS

CITY           SKY/WX    TMP DP  RH WIND       PRES   REMARKS
WICHITA FALLS  CLEAR     40  25  55 S21G29    29.85S WCI  30
WF-KICKAPOO    CLEAR     40  25  54 S9G16     29.88S WCI  34
VERNON         PTCLDY    40  21  48 S13       29.81S WCI  32
ABILENE        PTCLDY    39  23  52 SW18      29.89F WCI  30
ABILENE-DYESS  MOCLDY    42  23  46 SW23G35   29.86F WCI  33
BRECKENRIDGE   CLEAR     40  24  52 S10       29.92S WCI  34
MINERAL WELLS  PTCLDY    33  25  72 SE6       29.95R WCI  28
STEPHENVILLE   PTCLDY    35  26  71 S7        29.98S WCI  29
COMANCHE       CLEAR     38  26  61 S13       29.95F WCI  31
COLEMAN        CLEAR     34  27  75 SW8       29.95R WCI  27
BRADY          CLEAR     34  21  60 S5        29.95R WCI  30
$$

TXZ143>147-156>162-174-175-251400-
CENTRAL TEXAS

CITY           SKY/WX    TMP DP  RH WIND       PRES   REMARKS
WACO           PTCLDY    38  30  73 S8        30.03F WCI  32
WACO-TSTC      CLEAR     34  30  86 S5        30.04  WCI  30
WACO-MCGREGOR  PTCLDY    37  27  65 S13       30.03S WCI  29
HILLSBORO      CLEAR     35  29  78 SE8       30.02S WCI  29
CORSICANA      PTCLDY    36  29  75 S9        30.05S WCI  29
MEXIA          CLEAR     33  29  86 S3        30.04F
HEARNE         PTCLDY    37  32  82 SE7       30.09S WCI  31
CAMERON        CLEAR     38  31  74 S12       30.06S WCI  31
TEMPLE         PTCLDY    32  25  74 S7        30.02S WCI  26
KILLEEN        PTCLDY    38  27  64 S12       30.01F WCI  31
KILLEEN-SKYLRK PTCLDY    36  23  60 S6        30.00S WCI  31
FORT HOOD      PTCLDY    40  27  61 S10       30.01F WCI  33
GATESVILLE     CLEAR     39  28  65 S7        30.02S WCI  34
HAMILTON       PTCLDY    33  27  76 S7        29.98R WCI  27
$$

TXZ095>097-106>112-122>126-135>138-148>153-164>167-251400-
EAST TEXAS

CITY           SKY/WX    TMP DP  RH WIND       PRES   REMARKS
PARIS          CLEAR     30  27  86 S7        30.04R WCI  23
SULPHUR SPRNGS CLEAR     39  32  76 S9        30.06R WCI  32
MOUNT PLEASANT CLEAR     31  30  98 SE5       30.09R WCI  26
MINEOLA        CLEAR     37  32  81 SE6       30.07R WCI  33
TYLER          CLEAR     35  31  85 S10       30.07S WCI  27
LONGVIEW       CLEAR     34  30  85 S9        30.09S WCI  27
MARSHALL       PTCLDY    30  28  93 CALM      30.14R
ATHENS         PTCLDY    32  28  86 CALM      30.05F
PALESTINE      PTCLDY    37  32  84 SE5       30.08F WCI  33
JACKSONVILLE   CLEAR     37  33  85 S7        30.10S WCI  32
HENDERSON      PTCLDY    32  32  99 SE3       30.11F
NACOGDOCHES      N/A    N/A N/A N/A MISG        N/A
LUFKIN         PTCLDY    33  29  85 CALM      30.13R
$$

SUPPLEMENTAL OBSERVATIONS (CENTRAL)

CITY           SKY/WX    TMP DP  RH WIND       PRES   REMARKS
$$

SUPPLEMENTAL OBSERVATIONS (WEST)

CITY           SKY/WX    TMP DP  RH WIND       PRES   REMARKS
$$

SUPPLEMENTAL OBSERVATIONS (EAST)

CITY           SKY/WX    TMP DP  RH WIND       PRES   REMARKS
$$

SUPPLEMENTAL OBSERVATIONS ARE A COLLECTION OF AUTOMATED INSTRUMENTS
THAT ARE MAINTAINED BY A VARIETY OF FEDERAL AND STATE AGENCIES.
CERTAIN ELEMENTS...SUCH AS HUMIDITY VALUES AND SUSTAINED WIND
SPEEDS...MAY BE APPROXIMATED.



USA.gov is the U.S. government's official web portal to all federal, state and local government web resources and services.